Simultaneous Nadir Overpasses (SNOs) Predictions

Prediction of SNOs between TERRA and METOP-C Satellite Orbit:

Table of predicted SNOs for the next 14.0 days since TLE Epoch: 12/26/2020
Index Date (TERRA) Time (TERRA) Lat,Lon (TERRA) SZA (TERRA ) Date (METOP-C) Time (METOP-C) Lat,Lon (METOP-C) SZA (METOP-C ) Distance(km) Time Diff (sec)
1 12/28/2020 12:32:38 81.26, 38.09 106.98 12/28/2020 12:31:38 81.27, 38.22 106.98 2.35 60
2 12/28/2020 13:22:03 -81.28,-153.98 72.98 12/28/2020 13:22:16 -81.28,-154.04 72.98 0.98 13
3 12/31/2020 08:06:51 81.27, 104.72 106.79 12/31/2020 08:06:00 81.27, 104.72 106.77 0.06 51
4 12/31/2020 08:56:17 -81.29, -87.33 73.17 12/31/2020 08:56:39 -81.28, -87.49 73.19 2.81 22
5 01/03/2021 03:41:05 81.28, 171.30 106.53 01/03/2021 03:40:23 81.27, 171.20 106.50 1.82 42
6 01/03/2021 04:30:32 -81.28, -21.10 73.49 01/03/2021 04:31:02 -81.28, -20.95 73.45 2.61 30
7 01/05/2021 23:15:20 81.27,-122.54 106.15 01/05/2021 23:14:47 81.27,-122.73 106.12 3.25 33
8 01/06/2021 00:04:46 -81.29, 45.46 73.81 01/06/2021 00:05:25 -81.28, 45.57 73.78 1.85 39
9 01/08/2021 18:49:33 81.27, -56.04 105.76 01/08/2021 18:49:08 81.28, -55.90 105.77 2.48 25



Historial Predications of SNOs between TERRA and METOP-C
